owner,sensor,date,latitude,longitude,air_temperature,qcFlag 
DISL,ioos:station:DISL:DISL:1,2008-11-01T00:00:00Z,30.2513,-88.0778,19.19,1111122 
DISL,ioos:station:DISL:DISL:1,2008-11-01T00:30:00Z,30.2513,-88.0778,19.21,1111122 
DISL,ioos:station:DISL:DISL:1,2008-11-01T01:00:00Z,30.2513,-88.0778,19.17,1111122 
DISL,ioos:station:DISL:DISL:1,2008-11-01T01:30:00Z,30.2513,-88.0778,19.11,1111122 
DISL,ioos:station:DISL:DISL:1,2008-11-01T02:00:00Z,30.2513,-88.0778,19.05,1111122 
DISL,ioos:station:DISL:DISL:1,2008-11-01T02:30:00Z,30.2513,-88.0778,19.09,1111122 
DISL,ioos:station:DISL:DISL:1,2008-11-01T03:00:00Z,30.2513,-88.0778,19.07,1111122 
DISL,ioos:station:DISL:DISL:1,2008-11-01T03:30:00Z,30.2513,-88.0778,19.07,1111122 
DISL,ioos:station:DISL:DISL:1,2008-11-01T04:00:00Z,30.2513,-88.0778,18.6,1111122 
DISL,ioos:station:DISL:DISL:1,2008-11-01T04:30:00Z,30.2513,-88.0778,18.48,1111122 
DISL,ioos:station:DISL:DISL:1,2008-11-01T05:00:00Z,30.2513,-88.0778,17.74,1111122 
DISL,ioos:station:DISL:DISL:1,2008-11-01T05:30:00Z,30.2513,-88.0778,17.63,1111122 
DISL,ioos:station:DISL:DISL:1,2008-11-01T06:00:00Z,30.2513,-88.0778,17.43,1111122 
DISL,ioos:station:DISL:DISL:1,2008-11-01T06:30:00Z,30.2513,-88.0778,17.54,1111122 
DISL,ioos:station:DISL:DISL:1,2008-11-01T07:00:00Z,30.2513,-88.0778,17.35,1111122 
DISL,ioos:station:DISL:DISL:1,2008-11-01T07:30:00Z,30.2513,-88.0778,17.07,1111122 
DISL,ioos:station:DISL:DISL:1,2008-11-01T08:00:00Z,30.2513,-88.0778,16.5,1111122 
DISL,ioos:station:DISL:DISL:1,2008-11-01T08:30:00Z,30.2513,-88.0778,16.76,1111122 
DISL,ioos:station:DISL:DISL:1,2008-11-01T09:00:00Z,30.2513,-88.0778,16.41,1111122 
DISL,ioos:station:DISL:DISL:1,2008-11-01T09:30:00Z,30.2513,-88.0778,16.36,1111122 
DISL,ioos:station:DISL:DISL:1,2008-11-01T10:00:00Z,30.2513,-88.0778,16.31,1111122 
DISL,ioos:station:DISL:DISL:1,2008-11-01T10:30:00Z,30.2513,-88.0778,16.27,1111122 
DISL,ioos:station:DISL:DISL:1,2008-11-01T11:00:00Z,30.2513,-88.0778,16.1,1111122 
DISL,ioos:station:DISL:DISL:1,2008-11-01T11:30:00Z,30.2513,-88.0778,15.99,1111122 
DISL,ioos:station:DISL:DISL:1,2008-11-01T12:00:00Z,30.2513,-88.0778,15.91,1111122 
DISL,ioos:station:DISL:DISL:1,2008-11-01T12:30:00Z,30.2513,-88.0778,15.97,1111122 
DISL,ioos:station:DISL:DISL:1,2008-11-01T13:00:00Z,30.2513,-88.0778,15.53,1111122 
DISL,ioos:station:DISL:DISL:1,2008-11-01T13:30:00Z,30.2513,-88.0778,15.37,1111122 
DISL,ioos:station:DISL:DISL:1,2008-11-01T14:00:00Z,30.2513,-88.0778,15.38,1111122 
DISL,ioos:station:DISL:DISL:1,2008-11-01T14:30:00Z,30.2513,-88.0778,15.75,1111122 
DISL,ioos:station:DISL:DISL:1,2008-11-01T15:00:00Z,30.2513,-88.0778,16.07,1111122 
DISL,ioos:station:DISL:DISL:1,2008-11-01T15:30:00Z,30.2513,-88.0778,16.36,1111122 
DISL,ioos:station:DISL:DISL:1,2008-11-01T16:00:00Z,30.2513,-88.0778,16.66,1111122 
DISL,ioos:station:DISL:DISL:1,2008-11-01T16:30:00Z,30.2513,-88.0778,17.06,1111122 
DISL,ioos:station:DISL:DISL:1,2008-11-01T17:00:00Z,30.2513,-88.0778,16.68,1111122 
DISL,ioos:station:DISL:DISL:1,2008-11-01T17:30:00Z,30.2513,-88.0778,16.83,1111122 
DISL,ioos:station:DISL:DISL:1,2008-11-01T18:00:00Z,30.2513,-88.0778,17.25,1111122 
DISL,ioos:station:DISL:DISL:1,2008-11-01T18:30:00Z,30.2513,-88.0778,17.73,1111122 
DISL,ioos:station:DISL:DISL:1,2008-11-01T19:00:00Z,30.2513,-88.0778,18.3,1111122 
DISL,ioos:station:DISL:DISL:1,2008-11-01T19:30:00Z,30.2513,-88.0778,18.64,1111122 
DISL,ioos:station:DISL:DISL:1,2008-11-01T20:00:00Z,30.2513,-88.0778,18.93,1111122 
DISL,ioos:station:DISL:DISL:1,2008-11-01T20:30:00Z,30.2513,-88.0778,19.15,1111122 
DISL,ioos:station:DISL:DISL:1,2008-11-01T21:00:00Z,30.2513,-88.0778,19.27,1111122 
DISL,ioos:station:DISL:DISL:1,2008-11-01T21:30:00Z,30.2513,-88.0778,19.36,1111122 
DISL,ioos:station:DISL:DISL:1,2008-11-01T22:00:00Z,30.2513,-88.0778,19.09,1111122 
DISL,ioos:station:DISL:DISL:1,2008-11-01T22:30:00Z,30.2513,-88.0778,19.69,1111122 
DISL,ioos:station:DISL:DISL:1,2008-11-01T23:00:00Z,30.2513,-88.0778,19.08,1111122 
DISL,ioos:station:DISL:DISL:1,2008-11-01T23:30:00Z,30.2513,-88.0778,18.63,1111122 
DISL,ioos:station:DISL:DISL:1,2008-11-02T00:00:00Z,30.2513,-88.0778,18.35,1111122 
DISL,ioos:station:DISL:DISL:1,2008-11-02T00:30:00Z,30.2513,-88.0778,18.43,1111122 
DISL,ioos:station:DISL:DISL:1,2008-11-02T01:00:00Z,30.2513,-88.0778,18.49,1111122 
DISL,ioos:station:DISL:DISL:1,2008-11-02T01:30:00Z,30.2513,-88.0778,18.55,1111122 
DISL,ioos:station:DISL:DISL:1,2008-11-02T02:00:00Z,30.2513,-88.0778,16.17,1111122 
DISL,ioos:station:DISL:DISL:1,2008-11-02T02:30:00Z,30.2513,-88.0778,16.86,1111122 
DISL,ioos:station:DISL:DISL:1,2008-11-02T03:30:00Z,30.2513,-88.0778,16.49,1111122 
DISL,ioos:station:DISL:DISL:1,2008-11-02T04:00:00Z,30.2513,-88.0778,16.35,1111122 
DISL,ioos:station:DISL:DISL:1,2008-11-02T04:30:00Z,30.2513,-88.0778,16.2,1111122 
DISL,ioos:station:DISL:DISL:1,2008-11-02T05:00:00Z,30.2513,-88.0778,16.35,1111122 
DISL,ioos:station:DISL:DISL:1,2008-11-02T05:30:00Z,30.2513,-88.0778,17.44,1111122 
DISL,ioos:station:DISL:DISL:1,2008-11-02T06:00:00Z,30.2513,-88.0778,17.47,1111122 
DISL,ioos:station:DISL:DISL:1,2008-11-02T06:30:00Z,30.2513,-88.0778,17.6,1111122 
DISL,ioos:station:DISL:DISL:1,2008-11-02T07:00:00Z,30.2513,-88.0778,16.77,1111122 
DISL,ioos:station:DISL:DISL:1,2008-11-02T07:30:00Z,30.2513,-88.0778,15.56,1111122 
DISL,ioos:station:DISL:DISL:1,2008-11-02T08:00:00Z,30.2513,-88.0778,16.26,1111122 
DISL,ioos:station:DISL:DISL:1,2008-11-02T08:30:00Z,30.2513,-88.0778,15.92,1111122 
DISL,ioos:station:DISL:DISL:1,2008-11-02T09:00:00Z,30.2513,-88.0778,16.09,1111122 
DISL,ioos:station:DISL:DISL:1,2008-11-02T09:30:00Z,30.2513,-88.0778,16.14,1111122 
DISL,ioos:station:DISL:DISL:1,2008-11-02T10:00:00Z,30.2513,-88.0778,16.26,1111122 
DISL,ioos:station:DISL:DISL:1,2008-11-02T10:30:00Z,30.2513,-88.0778,15.82,1111122 
DISL,ioos:station:DISL:DISL:1,2008-11-02T11:00:00Z,30.2513,-88.0778,16.05,1111122 
DISL,ioos:station:DISL:DISL:1,2008-11-02T11:30:00Z,30.2513,-88.0778,16.26,1111122 
DISL,ioos:station:DISL:DISL:1,2008-11-02T12:00:00Z,30.2513,-88.0778,16.16,1111122 
DISL,ioos:station:DISL:DISL:1,2008-11-02T12:30:00Z,30.2513,-88.0778,16.34,1111122 
DISL,ioos:station:DISL:DISL:1,2008-11-02T13:00:00Z,30.2513,-88.0778,16.58,1111122 
DISL,ioos:station:DISL:DISL:1,2008-11-02T13:30:00Z,30.2513,-88.0778,16.39,1111122 
DISL,ioos:station:DISL:DISL:1,2008-11-02T14:00:00Z,30.2513,-88.0778,16.07,1111122 
DISL,ioos:station:DISL:DISL:1,2008-11-02T14:30:00Z,30.2513,-88.0778,16.11,1111122 
DISL,ioos:station:DISL:DISL:1,2008-11-02T15:00:00Z,30.2513,-88.0778,15.94,1111122 
DISL,ioos:station:DISL:DISL:1,2008-11-02T15:30:00Z,30.2513,-88.0778,15.86,1111122 
DISL,ioos:station:DISL:DISL:1,2008-11-02T16:00:00Z,30.2513,-88.0778,16.39,1111122 
DISL,ioos:station:DISL:DISL:1,2008-11-02T16:30:00Z,30.2513,-88.0778,16.76,1111122 
DISL,ioos:station:DISL:DISL:1,2008-11-02T17:00:00Z,30.2513,-88.0778,17.17,1111122 
DISL,ioos:station:DISL:DISL:1,2008-11-02T17:30:00Z,30.2513,-88.0778,17.58,1111122 
DISL,ioos:station:DISL:DISL:1,2008-11-02T18:00:00Z,30.2513,-88.0778,17.67,1111122 
DISL,ioos:station:DISL:DISL:1,2008-11-02T18:30:00Z,30.2513,-88.0778,18.45,1111122 
DISL,ioos:station:DISL:DISL:1,2008-11-02T19:00:00Z,30.2513,-88.0778,18.79,1111122 
DISL,ioos:station:DISL:DISL:1,2008-11-02T19:30:00Z,30.2513,-88.0778,19.06,1111122 
DISL,ioos:station:DISL:DISL:1,2008-11-02T20:00:00Z,30.2513,-88.0778,19.39,1111122 
DISL,ioos:station:DISL:DISL:1,2008-11-02T20:30:00Z,30.2513,-88.0778,19.85,1111122 
DISL,ioos:station:DISL:DISL:1,2008-11-02T21:00:00Z,30.2513,-88.0778,20.33,1111122 
DISL,ioos:station:DISL:DISL:1,2008-11-02T21:30:00Z,30.2513,-88.0778,21.44,1111122 
DISL,ioos:station:DISL:DISL:1,2008-11-02T22:00:00Z,30.2513,-88.0778,20.44,1111122 
DISL,ioos:station:DISL:DISL:1,2008-11-02T22:30:00Z,30.2513,-88.0778,20.36,1111122 
DISL,ioos:station:DISL:DISL:1,2008-11-02T23:00:00Z,30.2513,-88.0778,19.16,1111122 
DISL,ioos:station:DISL:DISL:1,2008-11-02T23:30:00Z,30.2513,-88.0778,17.97,1111122 
DISL,ioos:station:DISL:DISL:1,2008-11-03T00:00:00Z,30.2513,-88.0778,18.15,1111122 
DISL,ioos:station:DISL:DISL:1,2008-11-03T00:30:00Z,30.2513,-88.0778,18.2,1111122 
DISL,ioos:station:DISL:DISL:1,2008-11-03T01:00:00Z,30.2513,-88.0778,17.99,1111122 
DISL,ioos:station:DISL:DISL:1,2008-11-03T01:30:00Z,30.2513,-88.0778,17.37,1111122 
DISL,ioos:station:DISL:DISL:1,2008-11-03T02:00:00Z,30.2513,-88.0778,18.51,1111122 
DISL,ioos:station:DISL:DISL:1,2008-11-03T02:30:00Z,30.2513,-88.0778,17.82,1111122 
DISL,ioos:station:DISL:DISL:1,2008-11-03T03:00:00Z,30.2513,-88.0778,17.72,1111122 
DISL,ioos:station:DISL:DISL:1,2008-11-03T03:30:00Z,30.2513,-88.0778,17.89,1111122 
DISL,ioos:station:DISL:DISL:1,2008-11-03T04:00:00Z,30.2513,-88.0778,18.1,1111122 
DISL,ioos:station:DISL:DISL:1,2008-11-03T04:30:00Z,30.2513,-88.0778,18.06,1111122 
DISL,ioos:station:DISL:DISL:1,2008-11-03T05:00:00Z,30.2513,-88.0778,17.66,1111122 
DISL,ioos:station:DISL:DISL:1,2008-11-03T05:30:00Z,30.2513,-88.0778,17.73,1111122 
DISL,ioos:station:DISL:DISL:1,2008-11-03T06:00:00Z,30.2513,-88.0778,19.04,1111122 
DISL,ioos:station:DISL:DISL:1,2008-11-03T06:30:00Z,30.2513,-88.0778,18.5,1111122 
DISL,ioos:station:DISL:DISL:1,2008-11-03T07:00:00Z,30.2513,-88.0778,18.42,1111122 
DISL,ioos:station:DISL:DISL:1,2008-11-03T07:30:00Z,30.2513,-88.0778,18.36,1111122 
DISL,ioos:station:DISL:DISL:1,2008-11-03T08:00:00Z,30.2513,-88.0778,18.13,1111122 
DISL,ioos:station:DISL:DISL:1,2008-11-03T08:30:00Z,30.2513,-88.0778,17.75,1111122 
DISL,ioos:station:DISL:DISL:1,2008-11-03T09:00:00Z,30.2513,-88.0778,17.62,1111122 
DISL,ioos:station:DISL:DISL:1,2008-11-03T09:30:00Z,30.2513,-88.0778,17.55,1111122 
DISL,ioos:station:DISL:DISL:1,2008-11-03T10:00:00Z,30.2513,-88.0778,17.46,1111122 
DISL,ioos:station:DISL:DISL:1,2008-11-03T10:30:00Z,30.2513,-88.0778,17.52,1111122 
DISL,ioos:station:DISL:DISL:1,2008-11-03T11:00:00Z,30.2513,-88.0778,17.23,1111122 
DISL,ioos:station:DISL:DISL:1,2008-11-03T11:30:00Z,30.2513,-88.0778,17.13,1111122 
DISL,ioos:station:DISL:DISL:1,2008-11-03T12:00:00Z,30.2513,-88.0778,16.87,1111122 
DISL,ioos:station:DISL:DISL:1,2008-11-03T12:30:00Z,30.2513,-88.0778,16.68,1111122 
DISL,ioos:station:DISL:DISL:1,2008-11-03T13:00:00Z,30.2513,-88.0778,16.79,1111122 
DISL,ioos:station:DISL:DISL:1,2008-11-03T13:30:00Z,30.2513,-88.0778,16.79,1111122 
DISL,ioos:station:DISL:DISL:1,2008-11-03T14:00:00Z,30.2513,-88.0778,16.54,1111122 
DISL,ioos:station:DISL:DISL:1,2008-11-03T14:30:00Z,30.2513,-88.0778,16.73,1111122 
DISL,ioos:station:DISL:DISL:1,2008-11-03T15:00:00Z,30.2513,-88.0778,16.84,1111122 
DISL,ioos:station:DISL:DISL:1,2008-11-03T15:30:00Z,30.2513,-88.0778,17.14,1111122 
DISL,ioos:station:DISL:DISL:1,2008-11-03T16:00:00Z,30.2513,-88.0778,17.25,1111122 
DISL,ioos:station:DISL:DISL:1,2008-11-03T16:30:00Z,30.2513,-88.0778,17.38,1111122 
DISL,ioos:station:DISL:DISL:1,2008-11-03T17:00:00Z,30.2513,-88.0778,17.73,1111122 
DISL,ioos:station:DISL:DISL:1,2008-11-03T17:30:00Z,30.2513,-88.0778,17.99,1111122 
DISL,ioos:station:DISL:DISL:1,2008-11-03T18:00:00Z,30.2513,-88.0778,18.46,1111122 
DISL,ioos:station:DISL:DISL:1,2008-11-03T18:30:00Z,30.2513,-88.0778,19.26,1111122 
DISL,ioos:station:DISL:DISL:1,2008-11-03T19:00:00Z,30.2513,-88.0778,19.76,1111122 
DISL,ioos:station:DISL:DISL:1,2008-11-03T19:30:00Z,30.2513,-88.0778,20.15,1111122 
DISL,ioos:station:DISL:DISL:1,2008-11-03T20:00:00Z,30.2513,-88.0778,20.54,1111122 
DISL,ioos:station:DISL:DISL:1,2008-11-03T20:30:00Z,30.2513,-88.0778,20.89,1111122 
DISL,ioos:station:DISL:DISL:1,2008-11-03T21:00:00Z,30.2513,-88.0778,20.98,1111122 
DISL,ioos:station:DISL:DISL:1,2008-11-03T21:30:00Z,30.2513,-88.0778,21.08,1111122 
DISL,ioos:station:DISL:DISL:1,2008-11-03T22:00:00Z,30.2513,-88.0778,20.53,1111122 
DISL,ioos:station:DISL:DISL:1,2008-11-03T22:30:00Z,30.2513,-88.0778,20.53,1111122 
DISL,ioos:station:DISL:DISL:1,2008-11-03T23:00:00Z,30.2513,-88.0778,20.47,1111122 
DISL,ioos:station:DISL:DISL:1,2008-11-03T23:30:00Z,30.2513,-88.0778,20.73,1111122 
DISL,ioos:station:DISL:DISL:1,2008-11-04T00:00:00Z,30.2513,-88.0778,20.0,1111122 
DISL,ioos:station:DISL:DISL:1,2008-11-04T00:30:00Z,30.2513,-88.0778,20.0,1111122 
DISL,ioos:station:DISL:DISL:1,2008-11-04T01:00:00Z,30.2513,-88.0778,18.88,1111122 
DISL,ioos:station:DISL:DISL:1,2008-11-04T01:30:00Z,30.2513,-88.0778,18.73,1111122 
DISL,ioos:station:DISL:DISL:1,2008-11-04T02:00:00Z,30.2513,-88.0778,19.49,1111122 
DISL,ioos:station:DISL:DISL:1,2008-11-04T02:30:00Z,30.2513,-88.0778,19.72,1111122 
DISL,ioos:station:DISL:DISL:1,2008-11-04T03:00:00Z,30.2513,-88.0778,19.94,1111122 
DISL,ioos:station:DISL:DISL:1,2008-11-04T03:30:00Z,30.2513,-88.0778,19.67,1111122 
DISL,ioos:station:DISL:DISL:1,2008-11-04T04:00:00Z,30.2513,-88.0778,19.85,1111122 
DISL,ioos:station:DISL:DISL:1,2008-11-04T04:30:00Z,30.2513,-88.0778,19.74,1111122 
DISL,ioos:station:DISL:DISL:1,2008-11-04T05:00:00Z,30.2513,-88.0778,19.81,1111122 
DISL,ioos:station:DISL:DISL:1,2008-11-04T05:30:00Z,30.2513,-88.0778,19.6,1111122 
DISL,ioos:station:DISL:DISL:1,2008-11-04T06:00:00Z,30.2513,-88.0778,19.45,1111122 
DISL,ioos:station:DISL:DISL:1,2008-11-04T06:30:00Z,30.2513,-88.0778,19.3,1111122 
DISL,ioos:station:DISL:DISL:1,2008-11-04T07:00:00Z,30.2513,-88.0778,19.12,1111122 
DISL,ioos:station:DISL:DISL:1,2008-11-04T07:30:00Z,30.2513,-88.0778,18.87,1111122 
DISL,ioos:station:DISL:DISL:1,2008-11-04T08:00:00Z,30.2513,-88.0778,18.48,1111122 
DISL,ioos:station:DISL:DISL:1,2008-11-04T08:30:00Z,30.2513,-88.0778,18.27,1111122 
DISL,ioos:station:DISL:DISL:1,2008-11-04T09:00:00Z,30.2513,-88.0778,17.99,1111122 
DISL,ioos:station:DISL:DISL:1,2008-11-04T09:30:00Z,30.2513,-88.0778,17.49,1111122 
DISL,ioos:station:DISL:DISL:1,2008-11-04T10:00:00Z,30.2513,-88.0778,17.18,1111122 
DISL,ioos:station:DISL:DISL:1,2008-11-04T10:30:00Z,30.2513,-88.0778,16.88,1111122 
DISL,ioos:station:DISL:DISL:1,2008-11-04T11:00:00Z,30.2513,-88.0778,16.31,1111122 
DISL,ioos:station:DISL:DISL:1,2008-11-04T11:30:00Z,30.2513,-88.0778,16.05,1111122 
DISL,ioos:station:DISL:DISL:1,2008-11-04T12:00:00Z,30.2513,-88.0778,15.8,1111122 
DISL,ioos:station:DISL:DISL:1,2008-11-04T12:30:00Z,30.2513,-88.0778,15.75,1111122 
DISL,ioos:station:DISL:DISL:1,2008-11-04T13:00:00Z,30.2513,-88.0778,15.57,1111122 
DISL,ioos:station:DISL:DISL:1,2008-11-04T13:30:00Z,30.2513,-88.0778,15.58,1111122 
DISL,ioos:station:DISL:DISL:1,2008-11-04T14:00:00Z,30.2513,-88.0778,15.03,1111122 
DISL,ioos:station:DISL:DISL:1,2008-11-04T14:30:00Z,30.2513,-88.0778,14.42,1111122 
DISL,ioos:station:DISL:DISL:1,2008-11-04T15:00:00Z,30.2513,-88.0778,14.16,1111122 
DISL,ioos:station:DISL:DISL:1,2008-11-04T15:30:00Z,30.2513,-88.0778,15.13,1111122 
DISL,ioos:station:DISL:DISL:1,2008-11-04T16:00:00Z,30.2513,-88.0778,15.28,1111122 
DISL,ioos:station:DISL:DISL:1,2008-11-04T16:30:00Z,30.2513,-88.0778,15.57,1111122 
DISL,ioos:station:DISL:DISL:1,2008-11-04T17:00:00Z,30.2513,-88.0778,15.67,1111122 
DISL,ioos:station:DISL:DISL:1,2008-11-04T17:30:00Z,30.2513,-88.0778,15.43,1111122 
DISL,ioos:station:DISL:DISL:1,2008-11-04T18:00:00Z,30.2513,-88.0778,15.38,1111122 
DISL,ioos:station:DISL:DISL:1,2008-11-04T18:30:00Z,30.2513,-88.0778,15.09,1111122 
DISL,ioos:station:DISL:DISL:1,2008-11-04T19:00:00Z,30.2513,-88.0778,15.3,1111122 
DISL,ioos:station:DISL:DISL:1,2008-11-04T19:30:00Z,30.2513,-88.0778,15.87,1111122 
DISL,ioos:station:DISL:DISL:1,2008-11-04T20:00:00Z,30.2513,-88.0778,15.99,1111122 
DISL,ioos:station:DISL:DISL:1,2008-11-04T20:30:00Z,30.2513,-88.0778,16.21,1111122 
DISL,ioos:station:DISL:DISL:1,2008-11-04T21:00:00Z,30.2513,-88.0778,16.43,1111122 
DISL,ioos:station:DISL:DISL:1,2008-11-04T21:30:00Z,30.2513,-88.0778,16.53,1111122 
DISL,ioos:station:DISL:DISL:1,2008-11-04T22:00:00Z,30.2513,-88.0778,16.5,1111122 
DISL,ioos:station:DISL:DISL:1,2008-11-04T22:30:00Z,30.2513,-88.0778,16.47,1111122 
DISL,ioos:station:DISL:DISL:1,2008-11-04T23:00:00Z,30.2513,-88.0778,16.45,1111122 
DISL,ioos:station:DISL:DISL:1,2008-11-04T23:30:00Z,30.2513,-88.0778,16.67,1111122 
DISL,ioos:station:DISL:DISL:1,2008-11-05T00:00:00Z,30.2513,-88.0778,16.69,1111122 
DISL,ioos:station:DISL:DISL:1,2008-11-05T00:30:00Z,30.2513,-88.0778,16.6,1111122 
DISL,ioos:station:DISL:DISL:1,2008-11-05T01:00:00Z,30.2513,-88.0778,16.54,1111122 
DISL,ioos:station:DISL:DISL:1,2008-11-05T01:30:00Z,30.2513,-88.0778,16.45,1111122 
DISL,ioos:station:DISL:DISL:1,2008-11-05T02:00:00Z,30.2513,-88.0778,16.37,1111122 
DISL,ioos:station:DISL:DISL:1,2008-11-05T02:30:00Z,30.2513,-88.0778,16.17,1111122 
DISL,ioos:station:DISL:DISL:1,2008-11-05T03:00:00Z,30.2513,-88.0778,16.48,1111122 
DISL,ioos:station:DISL:DISL:1,2008-11-05T03:30:00Z,30.2513,-88.0778,16.48,1111122 
DISL,ioos:station:DISL:DISL:1,2008-11-05T04:00:00Z,30.2513,-88.0778,16.43,1111122 
DISL,ioos:station:DISL:DISL:1,2008-11-05T04:30:00Z,30.2513,-88.0778,16.32,1111122 
DISL,ioos:station:DISL:DISL:1,2008-11-05T05:00:00Z,30.2513,-88.0778,16.58,1111122 
DISL,ioos:station:DISL:DISL:1,2008-11-05T05:30:00Z,30.2513,-88.0778,16.65,1111122 
DISL,ioos:station:DISL:DISL:1,2008-11-05T06:00:00Z,30.2513,-88.0778,16.71,1111122 
DISL,ioos:station:DISL:DISL:1,2008-11-05T06:30:00Z,30.2513,-88.0778,16.73,1111122 
DISL,ioos:station:DISL:DISL:1,2008-11-05T07:00:00Z,30.2513,-88.0778,16.85,1111122 
DISL,ioos:station:DISL:DISL:1,2008-11-05T07:30:00Z,30.2513,-88.0778,16.93,1111122 
DISL,ioos:station:DISL:DISL:1,2008-11-05T08:00:00Z,30.2513,-88.0778,17.02,1111122 
DISL,ioos:station:DISL:DISL:1,2008-11-05T08:30:00Z,30.2513,-88.0778,16.92,1111122 
DISL,ioos:station:DISL:DISL:1,2008-11-05T09:00:00Z,30.2513,-88.0778,16.83,1111122 
DISL,ioos:station:DISL:DISL:1,2008-11-05T09:30:00Z,30.2513,-88.0778,16.43,1111122 
DISL,ioos:station:DISL:DISL:1,2008-11-05T10:00:00Z,30.2513,-88.0778,16.48,1111122 
DISL,ioos:station:DISL:DISL:1,2008-11-05T10:30:00Z,30.2513,-88.0778,16.58,1111122 
DISL,ioos:station:DISL:DISL:1,2008-11-05T11:00:00Z,30.2513,-88.0778,16.69,1111122 
DISL,ioos:station:DISL:DISL:1,2008-11-05T11:30:00Z,30.2513,-88.0778,16.56,1111122 
DISL,ioos:station:DISL:DISL:1,2008-11-05T12:00:00Z,30.2513,-88.0778,16.62,1111122 
DISL,ioos:station:DISL:DISL:1,2008-11-05T12:30:00Z,30.2513,-88.0778,16.81,1111122 
DISL,ioos:station:DISL:DISL:1,2008-11-05T13:00:00Z,30.2513,-88.0778,17.11,1111122 
DISL,ioos:station:DISL:DISL:1,2008-11-05T13:30:00Z,30.2513,-88.0778,17.37,1111122 
DISL,ioos:station:DISL:DISL:1,2008-11-05T14:00:00Z,30.2513,-88.0778,17.37,1111122 
DISL,ioos:station:DISL:DISL:1,2008-11-05T14:30:00Z,30.2513,-88.0778,17.45,1111122 
DISL,ioos:station:DISL:DISL:1,2008-11-05T15:00:00Z,30.2513,-88.0778,17.52,1111122 
DISL,ioos:station:DISL:DISL:1,2008-11-05T15:30:00Z,30.2513,-88.0778,17.65,1111122 
DISL,ioos:station:DISL:DISL:1,2008-11-05T16:00:00Z,30.2513,-88.0778,17.67,1111122 
DISL,ioos:station:DISL:DISL:1,2008-11-05T16:30:00Z,30.2513,-88.0778,17.81,1111122 
DISL,ioos:station:DISL:DISL:1,2008-11-05T17:00:00Z,30.2513,-88.0778,18.2,1111122 
DISL,ioos:station:DISL:DISL:1,2008-11-05T17:30:00Z,30.2513,-88.0778,18.46,1111122 
DISL,ioos:station:DISL:DISL:1,2008-11-05T18:00:00Z,30.2513,-88.0778,18.63,1111122 
DISL,ioos:station:DISL:DISL:1,2008-11-05T18:30:00Z,30.2513,-88.0778,18.82,1111122 
DISL,ioos:station:DISL:DISL:1,2008-11-05T19:00:00Z,30.2513,-88.0778,19.24,1111122 
DISL,ioos:station:DISL:DISL:1,2008-11-05T19:30:00Z,30.2513,-88.0778,19.69,1111122 
DISL,ioos:station:DISL:DISL:1,2008-11-05T20:00:00Z,30.2513,-88.0778,20.07,1111122 
DISL,ioos:station:DISL:DISL:1,2008-11-05T20:30:00Z,30.2513,-88.0778,20.91,1111122 
DISL,ioos:station:DISL:DISL:1,2008-11-05T21:00:00Z,30.2513,-88.0778,22.02,1111122 
DISL,ioos:station:DISL:DISL:1,2008-11-05T21:30:00Z,30.2513,-88.0778,21.62,1111122 
DISL,ioos:station:DISL:DISL:1,2008-11-05T22:00:00Z,30.2513,-88.0778,21.38,1111122 
DISL,ioos:station:DISL:DISL:1,2008-11-05T22:30:00Z,30.2513,-88.0778,21.04,1111122 
DISL,ioos:station:DISL:DISL:1,2008-11-05T23:00:00Z,30.2513,-88.0778,20.02,1111122 
DISL,ioos:station:DISL:DISL:1,2008-11-05T23:30:00Z,30.2513,-88.0778,19.8,1111122 
DISL,ioos:station:DISL:DISL:1,2008-11-06T00:00:00Z,30.2513,-88.0778,19.69,1111122 
DISL,ioos:station:DISL:DISL:1,2008-11-06T00:30:00Z,30.2513,-88.0778,19.54,1111122 
DISL,ioos:station:DISL:DISL:1,2008-11-06T01:00:00Z,30.2513,-88.0778,19.16,1111122 
DISL,ioos:station:DISL:DISL:1,2008-11-06T01:30:00Z,30.2513,-88.0778,19.27,1111122 
DISL,ioos:station:DISL:DISL:1,2008-11-06T02:00:00Z,30.2513,-88.0778,18.79,1111122 
DISL,ioos:station:DISL:DISL:1,2008-11-06T02:30:00Z,30.2513,-88.0778,18.71,1111122 
DISL,ioos:station:DISL:DISL:1,2008-11-06T03:00:00Z,30.2513,-88.0778,18.61,1111122 
DISL,ioos:station:DISL:DISL:1,2008-11-06T03:30:00Z,30.2513,-88.0778,18.55,1111122 
DISL,ioos:station:DISL:DISL:1,2008-11-06T04:00:00Z,30.2513,-88.0778,18.74,1111122 
DISL,ioos:station:DISL:DISL:1,2008-11-06T04:30:00Z,30.2513,-88.0778,18.49,1111122 
DISL,ioos:station:DISL:DISL:1,2008-11-06T05:00:00Z,30.2513,-88.0778,18.52,1111122 
DISL,ioos:station:DISL:DISL:1,2008-11-06T05:30:00Z,30.2513,-88.0778,18.58,1111122 
DISL,ioos:station:DISL:DISL:1,2008-11-06T06:00:00Z,30.2513,-88.0778,18.53,1111122 
DISL,ioos:station:DISL:DISL:1,2008-11-06T06:30:00Z,30.2513,-88.0778,18.53,1111122 
DISL,ioos:station:DISL:DISL:1,2008-11-06T07:00:00Z,30.2513,-88.0778,18.38,1111122 
DISL,ioos:station:DISL:DISL:1,2008-11-06T07:30:00Z,30.2513,-88.0778,17.79,1111122 
DISL,ioos:station:DISL:DISL:1,2008-11-06T08:00:00Z,30.2513,-88.0778,18.18,1111122 
DISL,ioos:station:DISL:DISL:1,2008-11-06T08:30:00Z,30.2513,-88.0778,18.24,1111122 
DISL,ioos:station:DISL:DISL:1,2008-11-06T09:00:00Z,30.2513,-88.0778,18.06,1111122 
DISL,ioos:station:DISL:DISL:1,2008-11-06T09:30:00Z,30.2513,-88.0778,18.01,1111122 
DISL,ioos:station:DISL:DISL:1,2008-11-06T10:00:00Z,30.2513,-88.0778,18.06,1111122 
DISL,ioos:station:DISL:DISL:1,2008-11-06T10:30:00Z,30.2513,-88.0778,17.98,1111122 
DISL,ioos:station:DISL:DISL:1,2008-11-06T11:00:00Z,30.2513,-88.0778,18.02,1111122 
DISL,ioos:station:DISL:DISL:1,2008-11-06T11:30:00Z,30.2513,-88.0778,18.17,1111122 
DISL,ioos:station:DISL:DISL:1,2008-11-06T12:00:00Z,30.2513,-88.0778,18.07,1111122 
DISL,ioos:station:DISL:DISL:1,2008-11-06T12:30:00Z,30.2513,-88.0778,18.21,1111122 
DISL,ioos:station:DISL:DISL:1,2008-11-06T13:00:00Z,30.2513,-88.0778,17.97,1111122 
DISL,ioos:station:DISL:DISL:1,2008-11-06T13:30:00Z,30.2513,-88.0778,18.31,1111122 
DISL,ioos:station:DISL:DISL:1,2008-11-06T14:00:00Z,30.2513,-88.0778,18.13,1111122 
DISL,ioos:station:DISL:DISL:1,2008-11-06T14:30:00Z,30.2513,-88.0778,17.88,1111122 
DISL,ioos:station:DISL:DISL:1,2008-11-06T15:00:00Z,30.2513,-88.0778,17.83,1111122 
DISL,ioos:station:DISL:DISL:1,2008-11-06T15:30:00Z,30.2513,-88.0778,18.12,1111122 
DISL,ioos:station:DISL:DISL:1,2008-11-06T16:00:00Z,30.2513,-88.0778,18.45,1111122 
DISL,ioos:station:DISL:DISL:1,2008-11-06T16:30:00Z,30.2513,-88.0778,18.78,1111122 
DISL,ioos:station:DISL:DISL:1,2008-11-06T17:00:00Z,30.2513,-88.0778,19.4,1111122 
DISL,ioos:station:DISL:DISL:1,2008-11-06T17:30:00Z,30.2513,-88.0778,20.1,1111122 
DISL,ioos:station:DISL:DISL:1,2008-11-06T18:00:00Z,30.2513,-88.0778,20.18,1111122 
DISL,ioos:station:DISL:DISL:1,2008-11-06T18:30:00Z,30.2513,-88.0778,20.31,1111122 
DISL,ioos:station:DISL:DISL:1,2008-11-06T19:00:00Z,30.2513,-88.0778,20.6,1111122 
DISL,ioos:station:DISL:DISL:1,2008-11-06T19:30:00Z,30.2513,-88.0778,20.76,1111122 
DISL,ioos:station:DISL:DISL:1,2008-11-06T20:00:00Z,30.2513,-88.0778,20.98,1111122 
DISL,ioos:station:DISL:DISL:1,2008-11-06T20:30:00Z,30.2513,-88.0778,21.35,1111122 
DISL,ioos:station:DISL:DISL:1,2008-11-06T21:00:00Z,30.2513,-88.0778,21.87,1111122 
DISL,ioos:station:DISL:DISL:1,2008-11-06T21:30:00Z,30.2513,-88.0778,21.62,1111122 
DISL,ioos:station:DISL:DISL:1,2008-11-06T22:00:00Z,30.2513,-88.0778,21.22,1111122 
DISL,ioos:station:DISL:DISL:1,2008-11-06T22:30:00Z,30.2513,-88.0778,20.84,1111122 
DISL,ioos:station:DISL:DISL:1,2008-11-06T23:00:00Z,30.2513,-88.0778,20.57,1111122 
DISL,ioos:station:DISL:DISL:1,2008-11-06T23:30:00Z,30.2513,-88.0778,20.33,1111122 
DISL,ioos:station:DISL:DISL:1,2008-11-07T00:00:00Z,30.2513,-88.0778,20.35,1111122 